EW6430 Weather Reports


time (UTC)temp
C
wind
direction
speed
KPH
gust
KPH
rain 1hr
cm
rain 24hr
cm
rain mn
cm
humidity
%
barometer
mb
20260505114516 26 170 14.5 35.4 0.00 0.00 0.00 20 1006.0
20260505114133 26 212 14.5 35.4 0.00 0.00 0.00 19 1006.6
20260505113621 26 223 16.1 35.4 0.00 0.00 0.00 20 1006.5
20260505113119 26 164 17.7 33.8 0.00 0.00 0.00 19 1006.7
20260505113049 26 163 14.5 33.8 0.00 0.00 0.00 19 1006.4
20260505112550 26 157 16.1 33.8 0.00 0.00 0.00 21 1006.4
20260505112049 26 227 14.5 32.2 0.00 0.00 0.00 24 1006.5
20260505111530 26 165 12.9 25.7 0.00 0.00 0.00 24 1006.3
20260505100632 25 151 12.9 24.1 0.00 0.00 0.00 26 1007.3
20260505100132 25 169 16.1 30.6 0.00 0.00 0.00 27 1007.3
20260505100057 25 169 14.5 30.6 0.00 0.00 0.00 27 1007.0
20260505095612 25 101 12.9 30.6 0.00 0.00 0.00 26 1007.4
20260505094559 25 150 6.4 22.5 0.00 0.00 0.00 28 1007.1
20260505094521 25 247 9.7 22.5 0.00 0.00 0.00 29 1007.3
20260505094007 25 203 11.3 27.4 0.00 0.00 0.00 28 1007.3
20260505093015 25 184 11.3 22.5 0.00 0.00 0.00 28 1007.2
20260505092937 25 125 12.9 24.1 0.00 0.00 0.00 27 1007.4
20260505092423 25 161 14.5 24.1 0.00 0.00 0.00 28 1007.4
20260505091908 25 127 12.9 27.4 0.00 0.00 0.00 27 1007.5
20260505091535 25 122 14.5 27.4 0.00 0.00 0.00 28 1007.0
20260505090328 25 180 11.3 27.4 0.00 0.00 0.00 29 1007.5
20260505090100 25 111 8.0 27.4 0.00 0.00 0.00 30 1007.2
20260505085817 25 148 12.9 27.4 0.00 0.00 0.00 30 1007.6
20260505084520 24 220 14.5 27.4 0.00 0.00 0.00 31 1007.5
20260505084232 24 123 11.3 27.4 0.00 0.00 0.00 31 1007.7
20260505083723 24 93 11.3 27.4 0.00 0.00 0.00 32 1007.7
20260505083227 24 210 12.9 25.7 0.00 0.00 0.00 32 1007.8
20260505083103 23 163 12.9 24.1 0.00 0.00 0.00 33 1007.5
20260505082718 24 202 12.9 25.7 0.00 0.00 0.00 33 1007.9
20260505082205 23 154 11.3 27.4 0.00 0.00 0.00 34 1007.8
20260505081650 23 128 9.7 27.4 0.00 0.00 0.00 34 1007.9
20260505081630 23 165 12.9 25.7 0.00 0.00 0.00 34 1007.7
20260505081148 23 242 9.7 19.3 0.00 0.00 0.00 36 1007.9
20260505080637 23 215 9.7 19.3 0.00 0.00 0.00 36 1007.9
20260505080127 23 196 9.7 20.9 0.00 0.00 0.00 38 1008.1
20260505075620 23 128 9.7 20.9 0.00 0.00 0.00 37 1008.1
20260505075113 23 196 11.3 30.6 0.00 0.00 0.00 37 1008.2
20260505074600 22 136 9.7 30.6 0.00 0.00 0.00 37 1008.2
20260505074533 22 134 14.5 25.7 0.00 0.00 0.00 37 1008.0
20260505074049 22 132 11.3 20.9 0.00 0.00 0.00 37 1008.2
20260505073035 22 109 9.7 20.9 0.00 0.00 0.00 38 1008.4
20260505073012 22 103 11.3 20.9 0.00 0.00 0.00 38 1008.2
20260505072528 22 131 8.0 20.9 0.00 0.00 0.00 38 1008.4
20260505072019 22 161 8.0 14.5 0.00 0.00 0.00 40 1008.4
20260505071551 21 136 8.0 17.7 0.00 0.00 0.00 40 1008.3
20260505071506 21 192 8.0 17.7 0.00 0.00 0.00 41 1008.5
20260505070957 21 113 8.0 19.3 0.00 0.00 0.00 41 1008.5
20260505070452 21 154 8.0 19.3 0.00 0.00 0.00 41 1008.5
20260505070122 21 180 9.7 14.5 0.00 0.00 0.00 40 1008.4
20260505065432 21 192 6.4 14.5 0.00 0.00 0.00 41 1008.7
20260505064924 21 183 4.8 11.3 0.00 0.00 0.00 43 1008.7
20260505064559 20 194 3.2 11.3 0.00 0.00 0.00 43 1008.6
20260505064414 21 188 6.4 14.5 0.00 0.00 0.00 44 1008.7
20260505063359 20 115 8.0 14.5 0.00 0.00 0.00 44 1008.8
20260505063035 20 121 8.0 14.5 0.00 0.00 0.00 44 1008.6
20260505062851 20 108 6.4 12.9 0.00 0.00 0.00 43 1008.8
20260505062353 20 165 6.4 14.5 0.00 0.00 0.00 45 1008.9
20260505061844 20 98 6.4 14.5 0.00 0.00 0.00 45 1008.9
20260505061513 19 119 4.8 12.9 0.00 0.00 0.00 46 1008.7
20260505061335 19 90 4.8 12.9 0.00 0.00 0.00 45 1008.9
20260505060824 19 124 3.2 12.9 0.00 0.00 0.00 47 1009.0
20260505060311 18 102 0.0 4.8 0.00 0.00 0.00 50 1009.0
20260505060041 18 122 0.0 3.2 0.00 0.00 0.00 51 1008.9
20260505055759 18 122 0.0 3.2 0.00 0.00 0.00 53 1009.1
20260505055239 18 123 0.0 1.6 0.00 0.00 0.00 55 1009.1
20260505054559 17 123 0.0 3.2 0.00 0.00 0.00 53 1009.0
20260505054215 17 125 0.0 3.2 0.00 0.00 0.00 55 1009.1
20260505053154 16 126 1.6 3.2 0.00 0.00 0.00 58 1009.3
20260505053034 16 126 0.0 3.2 0.00 0.00 0.00 58 1009.0
20260505052128 15 134 0.0 1.6 0.00 0.00 0.00 63 1009.4
20260505051617 15 134 0.0 1.6 0.00 0.00 0.00 64 1009.4
20260505051551 14 134 0.0 1.6 0.00 0.00 0.00 64 1009.2
20260505051103 14 134 0.0 1.6 0.00 0.00 0.00 65 1009.4
20260505050553 13 134 0.0 3.2 0.00 0.00 0.00 66 1009.4
20260505041546 8 134 0.0 0.0 0.00 0.00 0.00 87 1009.4
20260505040850 8 134 0.0 0.0 0.00 0.00 0.00 88 1009.6
20260505040006 7 134 0.0 0.0 0.00 0.00 0.00 88 1009.4
20260505035824 7 134 0.0 0.0 0.00 0.00 0.00 88 1009.6
20260505035312 7 134 0.0 0.0 0.00 0.00 0.00 87 1009.6
20260505034811 7 134 0.0 0.0 0.00 0.00 0.00 87 1009.6
20260505034541 7 134 0.0 0.0 0.00 0.00 0.00 87 1009.5
20260505034259 7 134 0.0 0.0 0.00 0.00 0.00 87 1009.7
20260505033746 7 134 0.0 0.0 0.00 0.00 0.00 87 1009.7
20260505033234 7 134 0.0 0.0 0.00 0.00 0.00 87 1009.7
20260505033011 7 134 0.0 0.0 0.00 0.00 0.00 86 1009.4
20260505032731 7 134 0.0 0.0 0.00 0.00 0.00 86 1009.6
20260505032222 7 134 0.0 0.0 0.00 0.00 0.00 86 1009.6
20260505031535 7 134 0.0 0.0 0.00 0.00 0.00 86 1009.4
20260505031147 7 134 0.0 0.0 0.00 0.00 0.00 86 1009.6
20260505030634 7 134 0.0 0.0 0.00 0.00 0.00 86 1009.7
20260505030126 7 134 0.0 0.0 0.00 0.00 0.00 85 1009.7
20260505030105 7 134 0.0 0.0 0.00 0.00 0.00 85 1009.6
20260505025058 7 134 0.0 0.0 0.00 0.00 0.00 85 1009.8
20260505024547 7 134 0.0 0.0 0.00 0.00 0.00 85 1009.9
20260505024527 7 134 0.0 0.0 0.00 0.00 0.00 85 1009.7
20260505024048 7 134 0.0 0.0 0.00 0.00 0.00 85 1009.9
20260505023535 7 134 0.0 0.0 0.00 0.00 0.00 85 1010.0
20260505023108 7 134 0.0 0.0 0.00 0.00 0.00 85 1009.9
20260505023022 7 134 0.0 0.0 0.00 0.00 0.00 85 1010.1
20260505022508 7 134 0.0 0.0 0.00 0.00 0.00 85 1010.1
20260505021516 7 134 0.0 0.0 0.00 0.00 0.00 85 1010.0
20260505020417 8 134 0.0 0.0 0.00 0.00 0.00 85 1010.2
20260505020054 7 134 0.0 0.0 0.00 0.00 0.00 85 1010.1
20260505015908 8 134 0.0 0.0 0.00 0.00 0.00 85 1010.3
20260505015353 8 134 0.0 0.0 0.00 0.00 0.00 85 1010.3
20260505014840 8 134 0.0 0.0 0.00 0.00 0.00 84 1010.3
20260505014503 7 134 0.0 0.0 0.00 0.00 0.00 84 1010.2
20260505014323 8 134 0.0 0.0 0.00 0.00 0.00 84 1010.3
20260505013811 8 134 0.0 0.0 0.00 0.00 0.00 84 1010.4
20260505013309 8 134 0.0 0.0 0.00 0.00 0.00 84 1010.4
20260505013039 8 134 0.0 0.0 0.00 0.00 0.00 83 1010.3
20260505012756 8 134 0.0 0.0 0.00 0.00 0.00 83 1010.5
20260505012239 8 134 0.0 0.0 0.00 0.00 0.00 83 1010.4
20260505011726 8 134 0.0 0.0 0.00 0.00 0.00 83 1010.4
20260505011558 8 134 0.0 0.0 0.00 0.00 0.00 83 1010.3
20260505011209 8 134 0.0 0.0 0.00 0.00 0.00 83 1010.4
20260505010658 8 134 0.0 0.0 0.00 0.00 0.00 83 1010.5
20260505010144 8 134 0.0 0.0 0.00 0.00 0.00 83 1010.5
20260505010015 8 134 0.0 0.0 0.00 0.00 0.00 83 1010.3
20260505005629 8 134 0.0 0.0 0.00 0.00 0.00 82 1010.5
20260505005114 8 134 0.0 0.0 0.00 0.00 0.00 82 1010.5
20260505004638 8 134 0.0 0.0 0.00 0.00 0.00 81 1010.4
20260505004604 8 134 0.0 0.0 0.00 0.00 0.00 81 1010.6
20260505004054 9 134 0.0 0.0 0.00 0.00 0.00 81 1010.6
20260505003041 9 134 0.0 0.0 0.00 0.00 0.00 80 1010.7
20260505003018 9 134 0.0 0.0 0.00 0.00 0.00 80 1010.6
20260505002528 9 134 0.0 0.0 0.00 0.00 0.00 80 1010.7
20260505002016 9 134 0.0 0.0 0.00 0.00 0.00 80 1010.8
20260505001547 9 134 0.0 0.0 0.00 0.00 0.00 80 1010.7
20260505001509 9 134 0.0 0.0 0.00 0.00 0.00 80 1010.8
20260505000950 10 134 0.0 0.0 0.00 0.00 0.00 79 1010.8
20260505000438 10 134 0.0 0.0 0.00 0.00 0.00 79 1010.8
20260505000113 10 134 0.0 0.0 0.00 0.00 0.00 78 1010.8
20260504235934 10 134 0.0 0.0 0.00 0.00 0.00 78 1010.9
20260504235430 10 134 0.0 0.0 0.00 0.00 0.00 78 1011.0
20260504234922 10 134 0.0 0.0 0.00 0.00 0.00 78 1011.1
20260504234544 10 134 0.0 0.0 0.00 0.00 0.00 77 1011.0
20260504234407 10 134 0.0 0.0 0.00 0.00 0.00 77 1011.1
20260504233856 10 134 0.0 0.0 0.00 0.00 0.00 77 1011.2
20260504233355 10 134 0.0 0.0 0.00 0.00 0.00 77 1011.2
20260504233030 10 134 0.0 0.0 0.00 0.00 0.00 77 1011.0
20260504232851 10 134 0.0 0.0 0.00 0.00 0.00 77 1011.2
20260504232350 10 134 0.0 0.0 0.00 0.00 0.00 76 1011.3
20260504231831 10 134 0.0 0.0 0.00 0.00 0.00 75 1011.3
20260504231505 10 134 0.0 0.0 0.00 0.00 0.00 75 1011.2
20260504231325 10 134 0.0 0.0 0.00 0.00 0.00 74 1011.4
20260504230810 11 134 0.0 0.0 0.00 0.00 0.00 73 1011.4
20260504230301 11 134 0.0 0.0 0.00 0.00 0.00 73 1011.4
20260504230037 11 134 0.0 0.0 0.00 0.00 0.00 72 1011.3
20260504225255 11 134 0.0 0.0 0.00 0.00 0.00 71 1011.5
20260504224748 11 134 0.0 0.0 0.00 0.00 0.00 70 1011.6
20260504224523 11 134 0.0 0.0 0.00 0.00 0.00 70 1011.4
20260504223742 12 134 0.0 0.0 0.00 0.00 0.00 69 1011.6
20260504223233 12 134 0.0 0.0 0.00 0.00 0.00 67 1011.6
20260504223005 12 134 0.0 0.0 0.00 0.00 0.00 66 1011.4
20260504222722 12 134 0.0 1.6 0.00 0.00 0.00 66 1011.6
20260504222214 12 134 0.0 1.6 0.00 0.00 0.00 64 1011.6
20260504221705 12 134 0.0 4.8 0.00 0.00 0.00 62 1011.6
20260504221538 12 134 0.0 4.8 0.00 0.00 0.00 62 1011.5
20260504221203 12 134 0.0 4.8 0.00 0.00 0.00 62 1011.6
20260504220704 12 242 0.0 0.0 0.00 0.00 0.00 63 1011.7
20260504220006 12 242 0.0 1.6 0.00 0.00 0.00 63 1011.5
20260504215701 12 242 0.0 1.6 0.00 0.00 0.00 63 1011.7
20260504214645 12 242 0.0 0.0 0.00 0.00 0.00 64 1011.7
20260504214517 12 242 0.0 0.0 0.00 0.00 0.00 64 1011.6
20260504214136 12 242 0.0 0.0 0.00 0.00 0.00 63 1011.8
20260504213622 12 242 0.0 0.0 0.00 0.00 0.00 63 1011.8
20260504213051 12 242 0.0 0.0 0.00 0.00 0.00 64 1011.5
20260504212051 13 242 0.0 0.0 0.00 0.00 0.00 63 1011.8
20260504211540 13 242 0.0 0.0 0.00 0.00 0.00 61 1011.7
20260504211515 13 242 0.0 0.0 0.00 0.00 0.00 61 1011.5
20260504211023 13 242 0.0 0.0 0.00 0.00 0.00 60 1011.8
20260504210513 14 242 0.0 0.0 0.00 0.00 0.00 59 1011.8
20260504210143 13 242 0.0 0.0 0.00 0.00 0.00 57 1011.6
20260504205452 14 242 0.0 1.6 0.00 0.00 0.00 57 1011.9
20260504204945 14 242 0.0 1.6 0.00 0.00 0.00 56 1011.8
20260504204520 14 249 0.0 0.0 0.00 0.00 0.00 56 1011.5
20260504204444 14 250 0.0 0.0 0.00 0.00 0.00 57 1011.7
20260504203937 14 249 0.0 0.0 0.00 0.00 0.00 57 1011.7
20260504203009 14 249 0.0 3.2 0.00 0.00 0.00 57 1011.5
20260504202924 15 249 0.0 3.2 0.00 0.00 0.00 57 1011.7
20260504201545 14 250 0.0 0.0 0.00 0.00 0.00 59 1011.5
20260504201407 15 250 0.0 1.6 0.00 0.00 0.00 59 1011.7
20260504200845 15 250 0.0 1.6 0.00 0.00 0.00 59 1011.8
20260504200338 15 250 0.0 0.0 0.00 0.00 0.00 61 1011.8
20260504200008 14 250 0.0 1.6 0.00 0.00 0.00 61 1011.5
20260504195826 14 250 0.0 1.6 0.00 0.00 0.00 62 1011.8
20260504195316 14 250 0.0 1.6 0.00 0.00 0.00 62 1011.8
20260504194804 14 250 0.0 1.6 0.00 0.00 0.00 65 1011.8
20260504194542 13 252 0.0 0.0 0.00 0.00 0.00 66 1011.5
20260504194253 14 252 0.0 0.0 0.00 0.00 0.00 65 1011.7
20260504193743 14 252 0.0 0.0 0.00 0.00 0.00 66 1011.7
20260504193227 15 252 0.0 0.0 0.00 0.00 0.00 65 1011.7
20260504193100 14 252 0.0 0.0 0.00 0.00 0.00 65 1011.5
20260504192159 15 252 0.0 0.0 0.00 0.00 0.00 63 1011.7
20260504191647 15 252 0.0 0.0 0.00 0.00 0.00 63 1011.7
20260504191535 15 252 0.0 0.0 0.00 0.00 0.00 63 1011.4
20260504191138 15 252 0.0 0.0 0.00 0.00 0.00 62 1011.6
20260504190625 16 252 0.0 0.0 0.00 0.00 0.00 61 1011.6
20260504190116 16 252 0.0 0.0 0.00 0.00 0.00 60 1011.6
20260504190100 16 252 0.0 0.0 0.00 0.00 0.00 60 1011.3
20260504185603 16 252 0.0 0.0 0.00 0.00 0.00 59 1011.5
20260504184534 17 252 0.0 0.0 0.00 0.00 0.00 58 1011.4
20260504184513 16 252 0.0 0.0 0.00 0.00 0.00 58 1011.2
20260504184023 17 252 0.0 0.0 0.00 0.00 0.00 57 1011.4
20260504183522 17 252 0.0 0.0 0.00 0.00 0.00 56 1011.3
20260504183107 17 252 0.0 1.6 0.00 0.00 0.00 55 1011.0
20260504182509 18 252 0.0 1.6 0.00 0.00 0.00 54 1011.3
20260504181525 19 252 0.0 1.6 0.00 0.00 0.00 50 1010.9
20260504181444 20 252 0.0 1.6 0.00 0.00 0.00 50 1011.2
20260504180936 20 252 0.0 0.0 0.00 0.00 0.00 49 1011.2
20260504180421 21 252 0.0 0.0 0.00 0.00 0.00 47 1011.1
20260504180051 21 252 0.0 0.0 0.00 0.00 0.00 46 1010.9
20260504175912 21 252 0.0 0.0 0.00 0.00 0.00 45 1011.1
20260504175356 22 252 0.0 1.6 0.00 0.00 0.00 43 1011.1
20260504174843 22 252 0.0 3.2 0.00 0.00 0.00 42 1011.1
20260504174514 22 252 0.0 4.8 0.00 0.00 0.00 40 1010.9
20260504174329 22 252 1.6 4.8 0.00 0.00 0.00 39 1011.1
20260504173805 23 252 1.6 8.0 0.00 0.00 0.00 38 1011.2
20260504173254 23 256 3.2 9.7 0.00 0.00 0.00 38 1011.1
20260504173023 23 246 3.2 9.7 0.00 0.00 0.00 37 1010.8
20260504172738 23 236 4.8 9.7 0.00 0.00 0.00 37 1011.0
20260504172225 23 227 4.8 16.1 0.00 0.00 0.00 37 1011.0
20260504171709 23 201 4.8 16.1 0.00 0.00 0.00 37 1011.0
20260504171541 23 262 4.8 12.9 0.00 0.00 0.00 37 1010.8
20260504171155 23 248 4.8 14.5 0.00 0.00 0.00 37 1011.0
20260504170639 23 240 6.4 17.7 0.00 0.00 0.00 37 1011.0
20260504170125 23 240 8.0 17.7 0.00 0.00 0.00 37 1011.0
20260504170109 23 234 4.8 17.7 0.00 0.00 0.00 37 1010.7
20260504160352 23 257 6.4 20.9 0.00 0.00 0.00 39 1011.1
20260504151139 24 251 9.7 20.9 0.00 0.00 0.00 39 1011.3
20260504150628 24 254 9.7 20.9 0.00 0.00 0.00 40 1011.3
20260504140923 25 215 11.3 27.4 0.00 0.00 0.00 36 1011.5
20260504140414 25 217 12.9 25.7 0.00 0.00 0.00 35 1011.6
20260504140151 25 221 12.9 24.1 0.00 0.00 0.00 36 1011.4
20260504130818 25 259 9.7 20.9 0.00 0.00 0.00 38 1012.2
20260504130315 25 178 9.7 25.7 0.00 0.00 0.00 38 1012.2
20260504120145 23 241 11.3 27.4 0.00 0.00 0.00 40 1012.7